OneWeb SL0015

operational
NORAD ID: 61594 Int'l Des: 2024-188 Owner: ONEWEBE Country: UK Constellation: oneweb
LEOCIRCULARPOLARONEWEB_TYPE

About OneWeb SL0015

Description loading...

Live Position

Loading 3D Globe...

Upcoming Passes

Altitude History

Altitude vs Time

uPlot chart will show altitude changes over time

Two-Line Element Set

1 61594U 24188A 25298.39169734 -.00000403 00000-0 -11724-2 0 9992
2 61594 87.8839 67.8595 0001096 82.6165 277.5087 13.11415930 53680
Epoch: Oct 25, 2025 • Age: 12 hours

Current Status

Altitude 1223.3 km
Velocity 7.24 km/s
Sub-Earth Point -12.36°S, 106.76°W
Launch Date Oct 20, 2024
Age 1 years
Type internet

Technical Details

Classification Payload
Mass 148.00 kg
Dry Mass 140.00 kg
Total Mass 148.00 kg
Length 1.30 m
Diameter 1.00 m
Span 5.00 m
Shape Trapezoid+2 pan
Manufacturer ONEWUS
Bus Type ARROW
Phase Status In Orbit
Owner/State ONEWEBE/UK

Large Constellations

Loading constellations...